Regional Weather Roundup
Issued by NWS

Home | Current Version | Previous Version | Text Only | Print | Product List | Glossary On
Versions: 1 2 3 4 5 6 7 8 9 10 11 12 13 14 15 16 17 18 19 20 21 22 23 24 25 26 27 28 29 30 31 32 33 34 35 36 37 38 39 40 41 42 43 44 45 46 47 48 49 50
000
ASUS44 KBMX 291910
RWRAL

ALABAMA REGIONAL WEATHER ROUNDUP
NATIONAL WEATHER SERVICE BIRMINGHAM AL
200 PM CDT FRI MAY 29 2015

NOTE: "FAIR" INDICATES FEW OR NO CLOUDS BELOW 12,000 FEET
WITH NO SIGNIFICANT WEATHER AND/OR OBSTRUCTIONS TO VISIBILITY.

THE REMARK "TC" DENOTES TEMPERATURE IN DEGREES CELSIUS.

ALZ001>011-014-016>018-020-292000-
NORTH ALABAMA

CITY           SKY/WX    TMP DP  RH WIND       PRES   REMARKS
MUSCLE SHOALS  PTSUNNY   83  67  58 SW8       30.13F
HUNTSVILLE     PTSUNNY   82  68  62 S12       30.15F
DECATUR        MOSUNNY   81  69  67 SE12      30.14F
HALEYVILLE     FAIR      80  69  69 CALM      30.16F
GADSDEN        MOSUNNY  N/A N/A N/A CALM      30.16F
$$

ALZ012-013-022-023-030>036-040>044-292000-
WEST CENTRAL ALABAMA

CITY           SKY/WX    TMP DP  RH WIND       PRES   REMARKS
TUSCALOOSA     MOSUNNY   85  65  51 S10       30.11F
$$

ALZ015-024>027-033>036-040>044-292000-
CENTRAL ALABAMA

CITY           SKY/WX    TMP DP  RH WIND       PRES   REMARKS
BIRMINGHAM     MOSUNNY   82  67  60 S5        30.16F
MONTGOMERY     CLOUDY    85  67  54 E5        30.12F
SHELBY CO ARPT PTSUNNY   82  67  60 VRB3      30.14F
MAXWELL AFB    PTSUNNY   84  68  59 VRB5      30.12F
GREENVILLE     PTSUNNY   86  64  47 E9        30.12F
$$

ALZ019-021-028-029-037-038-045>048-292000-
EAST CENTRAL ALABAMA

CITY           SKY/WX    TMP DP  RH WIND       PRES   REMARKS
ANNISTON       CLOUDY    81  66  60 S8        30.17F
ALEXANDER CITY MOSUNNY   84  65  52 S7        30.16F
AUBURN         MOSUNNY   81  61  50 E12       30.18
$$

ALZ051>064-292000-
SOUTHWEST ALABAMA

CITY           SKY/WX    TMP DP  RH WIND       PRES   REMARKS
MOBILE         MOSUNNY   85  68  56 S14G23    30.11F
BROOKLEY FIELD MOSUNNY   85  71  63 SE12      30.11F HX  90
EVERGREEN      MOSUNNY   86  66  51 E6        30.12F
$$

ALZ049-050-065>069-292000-
SOUTHEAST ALABAMA

CITY           SKY/WX    TMP DP  RH WIND       PRES   REMARKS
DOTHAN         MOSUNNY   85  60  42 SE8       30.18F
OZARK          MOSUNNY   85  64  47 E8        30.13F
TROY           MOSUNNY   88  66  48 SE9       30.14F HX  90
EUFAULA        FAIR      88  64  44 SE8       30.13F
$$



USA.gov is the U.S. government's official web portal to all federal, state and local government web resources and services.